SCP
0 0 0 0 0 0 0 0 0 0 0 0 0 0 0 0 0 0 0 0 0 -0 -0 0 0 0 0 0 0 0 0 0 0 0 0 0 0 0 0 0 0 0 0
0 0 0 0 0 0 0 0 0 0 0 0 0 0 0 0 0 0 0 0 0 0 0 0 0 0 0 0 0 0 0 0 0 0 0 0 0 0 0 0 0 0 0
0 0 0 0 0 0 0 0 0 0 0 0 0 0 0 0 0 0 0 0 0 0 0 0 0 0 0 0 0 0 0 0 0 0 0 0 0 0 0 0 0 0 0
0 0 0 0 0 0 0 0 0 0 0 0 0 0 0 0 0 0 0 0 0 0 0 0 0 0 0 0 0 0 0 0 0 0 0 0 0 0 0 0 0 0 0
0 0 0 0 0 0 0 0 0 0 0 0 0 0 0 0 0 0 0 0 0 0 0 0 0 0 0 0 0 0 0 0 0 0 0 0 0 0 0 0 0 0 0
0 0 0 0 0 0 0 0 0 0 0 0 0 0 0 0 0 0 0 0 0 0 0 0 0 0 0 0 0 0 0 0 0 0 0 0 0 0 0 0 0 0 0
0 0 0 0 0 0 0 0 0 0 0 0 0 0 0 0 0 0 0 0 0 0 0 0 0 0 0 0 0 0 0 0 0 0 0 0 0 0 0 0 0 0 0
0 0 0 0 0 0 0 0 0 0 0 0 0 0 0 0 0 0 0 0 0 0 0 0 0 0 0 0 0 0 0 0 0 0 0 0 0 0 0 0 0 0 0
0 0 0 0 0 0 0 0 0 0 0 0 0 0 0 0 0 0 0 0 0 0 0 0 0 0 0 0 0 0 0 0 0 0 0 0 0 0 0 0 0 0 0
0 0 0 0 0 0 0 0 0 0 0 0 0 0 0 0 0 0 0 0 0 0 0 0 0 0 0 0 0 0 0 0 0 0 0 0 0 0 0 0 0 0 0
0 0 0 0 0 0 0 0 0 0 0 0 0 0 0 0 0 0 0 0 0 0 0 0 0 0 0 0 0 0 0 0 0 0 0 0 0 0 0 0 0 0 0
0 0 0 0 0 0 0 0 0 0 0 0 0 0 0 0 0 0 0 0 0 0 0 0 0 0 0 0 0 0 0 0 0 0 0 0 0 0 0 0 0 0 0
0 0 0 0 0 0 0 0 0 0 0 0 0 0 0 0 0 0 0 0 0 0 0 0 0 0 0 0 0 0 0 0 0 0 0 0 0 0 0 0 0 0 0
0 0 0 0 0 0 0 0 0 0 0 0 0 0 0 0 0 0 0 0 0 0 0 0 0 0 0 0 0 0 0 0 0 0 0 0 0 0 0 0 0 0 0
0 0 0 0 0 0 0 0 0 0 0 0 0 0 0 0 0 0 0 0 0 0 0 0 0 0 0 0 0 0 0 0 0 0 0 0 0 0 0 0 0 0 0
0 0 0 0 0 0 0 0 0 0 0 0 0 0 0 0 0 0 0 0 0 0 0 0 0 0 0 0 0 0 0 0 0 0 0 0 0 0 0 0 0 0 0
0 0 0 0 0 0 0 0 0 0 0 0 0 0 0 0 0 0 0 0 0 0 0 0 0 0 0 0 0 0 0 0 0 0 0 0 0 0 0 0 0 0 0
0 0 0 0 0 0 0 0 0 0 0 0 0 0 0 0 0 0 0 0 0 0 0 0 0 0 0 0 0 0 0 0 0 0 0 0 0 0 0 0 0 0 0
0 0 0 0 0 0 0 0 0 0 0 0 0 0 0 0 0 0 0 0 0 0 0 0 0 0 0 0 0 0 0 0 0 0 0 0 0 0 0 0 0 0 0
0 0 0 0 0 0 0 0 0 0 0 0 0 0 0 0 0 0 0 0 0 0 0 0 0 0 0 0 0 0 0 0 0 0 0 0 0 0 0 0 0 0 0
0 0 0 0 0 0 0 0 0 0 0 0 0 0 0 0 0 0 0 0 0 0 0 0 0 0 0 0 0 0 0 0 0 0 0 0 0 0 0 0 0 0 0
0 0 0 0 0 0 0 0 0 0 0 0 0 0 0 0 0 0 0 0 0 0 0 0 0 0 0 0 0 0 0 0 0 0 0 0 0 0 0 0 0 0 0
0 0 0 0 0 0 0 0 0 0 0 0 0 0 0 0 0 0 0 0 0 0 0 0 0 0 0 0 0 0 0 0 0 0 0 0 0 0 0 0 0 0 0
0 0 0 0 0 0 0 0 0 0 0 0 0 0 0 0 0 0 0 0 0 0 0 0 0 0 0 0 0 0 0 0 0 0 0 0 0 0 0 0 0 0 0
0 0 0 0 0 0 0 0 0 0 0 0 0 0 0 0 0 0 0 0 0 0 0 0 0 0 0 0 0 0 0 0 0 0 0 0 0 0 0 0 0 0 0
0 0 0 0 0 0 0 0 0 0 0 0 0 0 0 0 0 0 0 0 0 0 0 0 0 0 0 0 0 0 0 0 0 0 0 0 0 0 0 0 0 0 0
Wind_Speed
8 7 6 6 6 5 5 6 5 5 5 7 7 7 7 6 6 5 5 4 4 4 3 3 4 3 2 2 1 1 1 3 3 4 3 3 2 3 3 4 5 6 6
8 7 7 6 6 6 6 6 5 5 6 7 7 7 7 7 7 7 7 6 5 5 5 5 5 4 4 3 3 3 3 3 4 5 4 3 4 4 4 5 6 7 6
7 7 6 6 6 6 6 5 5 6 6 6 7 7 8 7 7 7 7 7 7 7 6 6 7 6 6 5 5 5 4 4 4 4 5 3 4 4 4 5 6 5 7
7 7 7 7 6 6 5 5 5 6 6 6 6 7 7 7 7 7 7 7 7 7 7 7 7 7 8 7 6 6 5 5 5 5 6 5 5 4 3 4 5 5 6
7 7 7 6 5 4 4 5 5 5 6 6 6 5 5 6 6 7 7 7 7 7 6 7 7 9 10 8 6 6 6 6 5 6 7 5 5 4 5 4 6 6 6
5 4 3 2 2 2 2 2 2 3 3 3 4 4 4 4 4 7 6 4 4 5 5 5 6 6 7 9 10 9 8 7 7 6 7 8 9 7 6 5 6 5 7
6 4 4 3 3 2 2 2 1 0 0 1 2 2 2 1 2 3 4 2 2 2 2 3 3 3 3 3 6 8 8 11 11 9 9 10 9 7 6 7 7 8 9
8 6 6 5 5 5 5 4 2 2 2 2 2 2 2 2 2 1 1 1 1 1 2 2 1 2 4 4 4 4 5 6 8 7 8 10 9 8 8 9 10 9 7
8 7 6 6 6 6 5 4 3 4 4 3 3 4 4 4 5 4 4 3 3 3 4 4 3 3 7 8 5 5 7 7 8 9 10 12 14 15 12 7 7 7 10
7 7 6 6 6 5 4 3 3 4 4 4 5 5 5 4 6 7 6 3 3 3 4 4 5 5 7 8 4 5 7 8 8 10 10 10 10 11 14 10 9 9 9
6 7 6 6 5 5 4 4 5 5 6 6 6 5 5 6 8 9 8 4 3 2 2 3 3 8 10 11 8 5 9 9 7 8 8 8 7 7 7 8 8 9 10
6 6 5 4 4 5 5 4 4 5 5 5 5 4 4 4 6 7 8 6 3 1 1 3 4 10 12 12 9 10 13 10 5 5 6 6 7 7 7 8 9 10 11
6 6 5 4 4 3 4 4 3 3 3 3 3 2 2 2 3 5 5 5 4 2 2 6 9 11 11 8 10 12 10 5 4 5 6 7 7 7 7 7 8 9 10
6 5 4 4 4 4 3 2 2 2 2 2 2 2 1 1 2 2 3 3 4 4 3 6 9 9 7 7 8 7 4 4 5 5 6 6 6 6 6 6 7 7 8
6 5 4 4 4 3 3 2 2 1 2 3 2 2 2 1 2 3 2 2 3 3 3 3 3 4 4 5 5 5 5 5 5 5 6 6 7 7 7 7 6 7 8
5 4 3 3 3 3 3 4 7 6 7 8 7 5 2 2 4 5 6 7 7 5 3 2 3 4 4 5 5 6 5 5 6 6 6 7 7 8 8 7 7 8 9
4 3 2 3 3 3 2 3 3 6 10 11 10 8 7 7 8 8 8 8 7 6 2 2 3 4 4 5 5 5 6 6 6 6 7 8 8 8 8 8 8 8 9
3 4 3 2 3 3 3 3 3 3 3 4 5 8 9 9 8 9 8 6 5 4 3 3 4 5 5 5 6 6 6 7 6 7 8 8 8 9 9 9 9 10 10
3 2 3 3 3 4 4 4 4 4 4 3 3 5 8 8 7 8 7 3 3 4 4 4 5 5 5 6 6 6 7 7 8 8 8 9 9 9 10 10 10 13 11
3 6 5 4 4 4 4 5 4 4 3 3 3 3 4 5 4 5 4 4 4 4 5 5 5 6 6 6 7 7 7 7 8 8 8 8 8 9 10 12 11 11 10
3 4 7 5 4 4 4 4 4 3 3 2 2 3 5 3 3 4 4 4 4 5 5 6 6 6 6 6 6 7 9 8 8 8 8 9 9 10 10 10 11 11 11
3 3 3 4 3 4 3 3 3 2 2 2 2 3 5 3 3 4 4 4 5 5 5 5 6 6 6 7 7 8 8 8 8 9 9 10 10 10 10 10 11 11 10
3 4 4 4 3 4 4 3 2 2 2 2 2 3 3 3 4 4 4 5 5 6 6 5 6 6 6 6 6 7 8 9 9 10 11 11 10 10 10 11 13 13 11
4 4 4 3 3 3 2 2 2 1 2 2 2 3 3 3 4 5 5 5 6 6 6 6 6 9 11 9 7 7 7 8 10 10 12 12 12 11 10 11 11 13 12
4 4 3 3 2 2 2 2 2 2 2 2 3 3 4 4 4 5 5 5 7 7 9 8 7 8 11 12 11 10 11 13 12 11 10 10 11 12 11 12 11 12 11
3 3 3 2 2 2 1 1 2 3 3 3 3 3 3 4 4 5 5 6 7 7 8 8 10 12 13 10 12 14 13 13 13 13 10 9 10 10 11 10 13 11 12
Wind_Direction
187 188 186 187 188 185 189 197 195 195 190 185 184 185 189 193 192 189 201 202 206 225 228 219 233 231 237 244 212 179 184 170 221 269 264 273 258 251 246 236 241 238 239
189 188 192 191 190 194 203 205 197 194 192 190 186 188 197 200 198 198 209 212 211 222 230 227 236 234 235 237 231 232 226 205 209 257 274 271 257 247 242 240 240 237 234
181 184 192 194 193 201 209 209 204 198 195 192 189 195 203 204 203 207 209 215 217 221 223 224 230 226 235 233 230 233 236 235 215 236 264 259 263 259 260 260 252 249 246
180 182 188 195 198 203 206 207 207 201 197 197 197 200 203 205 207 210 211 217 223 227 226 226 228 224 229 229 232 231 231 238 236 242 259 262 259 258 246 258 271 256 254
176 187 199 199 200 200 203 211 211 207 208 202 200 206 208 208 215 212 215 221 224 232 236 235 236 234 232 231 235 231 228 236 240 245 257 264 261 255 247 241 256 265 261
143 166 166 150 161 186 202 213 221 227 225 203 200 206 211 222 224 214 207 219 223 231 244 252 256 254 255 251 251 248 234 235 242 244 252 253 260 252 251 246 251 260 269
115 108 99 104 107 100 96 85 89 69 89 159 179 178 181 213 231 216 212 210 236 254 262 274 282 299 304 293 282 277 266 258 249 249 254 257 260 253 247 252 245 243 252
93 88 86 92 92 82 74 71 63 67 70 71 79 100 98 71 81 99 108 101 53 0 344 333 337 1 6 353 330 320 302 291 276 263 258 265 267 261 246 250 254 257 256
88 84 85 90 89 84 77 66 61 69 66 61 62 74 79 56 58 68 77 63 41 20 16 25 28 19 10 11 358 330 314 304 298 291 283 276 276 273 267 267 260 258 265
89 89 87 89 91 90 86 75 65 76 76 71 65 68 74 65 59 71 81 70 52 29 19 20 26 19 2 1 348 318 303 299 305 308 301 292 280 273 266 252 250 255 262
89 87 85 86 91 90 83 73 73 75 71 67 68 66 71 74 65 68 73 75 70 43 12 345 327 339 338 332 323 284 277 288 294 290 290 290 287 279 271 259 248 247 255
76 75 74 74 80 84 77 68 73 83 82 79 77 65 59 63 67 68 65 65 67 69 321 305 308 323 325 322 316 301 301 302 290 287 288 287 287 284 281 275 266 258 253
67 62 59 55 54 67 80 79 76 84 93 89 90 86 62 49 48 54 50 37 23 8 298 306 313 316 319 317 312 315 318 313 307 301 295 290 284 283 286 286 283 275 269
61 49 44 45 39 42 53 75 91 98 100 100 104 108 92 42 9 2 2 357 349 341 324 316 315 316 316 308 312 319 318 311 310 302 300 297 299 297 295 292 291 290 286
58 45 40 42 42 37 34 39 64 83 135 128 124 123 112 44 322 343 357 336 321 309 322 331 338 336 334 327 320 315 315 321 319 309 305 305 305 302 299 298 289 289 283
54 39 35 36 34 38 41 35 43 56 71 83 91 96 86 54 5 5 358 349 346 353 21 345 326 320 317 317 317 315 314 313 311 308 306 303 303 302 299 295 289 286 284
62 43 33 30 28 28 43 61 48 38 57 68 68 62 53 31 22 12 3 359 0 10 15 324 312 309 307 307 308 307 306 306 306 305 304 302 300 299 298 297 292 286 284
49 38 39 32 36 46 56 63 74 75 56 40 38 35 29 23 19 14 10 13 359 357 334 314 308 306 306 307 307 307 306 308 306 305 304 302 301 300 300 298 294 289 288
41 25 38 51 56 61 64 66 65 67 63 45 22 8 7 5 9 10 14 13 340 329 323 314 309 309 308 306 305 304 304 303 303 304 303 302 303 302 299 297 296 292 286
33 46 64 68 65 66 65 66 62 60 56 46 31 3 352 7 5 353 355 346 338 328 323 318 314 311 309 307 305 304 303 301 302 301 301 301 301 299 298 299 297 297 293
42 52 67 73 71 73 73 73 69 63 52 36 7 360 13 6 346 338 337 334 330 324 321 319 315 313 311 309 307 305 304 302 303 304 304 303 301 299 297 295 295 294 292
70 68 70 78 79 75 74 70 70 64 47 29 351 346 358 357 334 327 323 320 317 311 306 305 307 306 307 309 310 310 309 310 311 310 308 303 300 298 296 296 295 296 297
78 80 74 70 74 75 70 62 58 48 18 351 336 334 335 332 327 323 320 318 316 314 311 309 309 308 309 309 307 307 309 311 312 309 305 301 300 300 300 300 301 302 302
80 81 82 79 73 69 66 53 38 16 348 332 328 326 324 324 324 324 323 319 318 316 314 312 311 312 316 318 314 311 312 316 317 308 302 297 297 296 296 297 298 299 301
83 82 81 79 74 64 52 35 11 354 345 336 334 334 332 334 333 332 330 327 327 326 325 323 320 320 321 322 323 322 321 315 309 308 303 296 293 293 295 295 297 300 301
80 80 73 68 62 50 46 24 357 353 351 350 350 347 345 344 341 338 337 337 336 332 330 327 327 327 325 325 325 324 318 314 312 310 304 296 295 295 300 298 299 300 301